Location: Bremen
(53.0758°N, 8.8072°E)
Time: 14:33:27
(UTC+01:00)

ISS - Pass Details

Date: 22 January 2026
Orbit: 413 x 428 km, 51.6° (Epoch: 13 February)

Event Time Altitude Azimuth Distance (km) Brightness Sun altitude
Rises 19:27:20 0° 277° (W) 2,367 1.5 -23.1°
Reaches altitude 10° 19:29:27 10° 272° (W) 1,505 0.2 -23.4°
Enters shadow 19:31:57 40° 241° (WSW) 636 -2.5 -23.8°
